Time[GMT],salinity[psu](1m),sigma_t[kg/m^3](1m),conductivity[msiemens/cm](1m),temperature[C](1m)
2014-10-26 00:00,32.090,24.225,37.500,12.56
2014-10-26 00:30,32.093,24.235,37.467,12.52
2014-10-26 01:00,32.093,24.231,37.485,12.54
2014-10-26 01:30,32.096,24.245,37.434,12.48
2014-10-26 02:00,31.961,24.125,37.364,12.56
2014-10-26 02:30,31.958,24.126,37.343,12.54
2014-10-26 03:00,31.940,24.122,37.280,12.49
2014-10-26 03:30,31.913,24.107,37.225,12.46
2014-10-26 04:00,31.889,24.089,37.200,12.46
2014-10-26 04:30,31.867,24.069,37.185,12.47
2014-10-26 05:00,31.929,24.117,37.250,12.47
2014-10-26 05:30,31.989,24.162,37.322,12.48
2014-10-26 06:00,32.007,24.176,37.341,12.48
2014-10-26 06:30,32.032,24.197,37.358,12.47
2014-10-26 07:00,32.031,24.196,37.357,12.47
2014-10-26 07:30,32.025,24.190,37.360,12.48
2014-10-26 08:00,32.035,24.197,37.370,12.48
2014-10-26 08:30,32.078,24.237,37.389,12.45
2014-10-26 09:00,32.103,24.260,37.397,12.43
2014-10-26 09:30,32.114,24.276,37.373,12.39
2014-10-26 10:00,32.092,24.257,37.359,12.40
2014-10-26 10:30,32.092,24.251,37.385,12.43
2014-10-26 11:00,32.093,24.248,37.404,12.45
2014-10-26 11:30,32.095,24.249,37.406,12.45
2014-10-26 12:00,32.099,24.253,37.411,12.45
2014-10-26 12:30,32.101,24.255,37.413,12.45
2014-10-26 13:00,32.100,24.254,37.412,12.45
2014-10-26 13:30,32.103,24.256,37.415,12.45
2014-10-26 14:00,32.103,24.252,37.433,12.47
2014-10-26 14:30,32.105,24.248,37.462,12.50
2014-10-26 15:00,32.102,24.242,37.477,12.52
2014-10-26 15:30,32.110,24.250,37.476,12.51
2014-10-26 16:00,32.110,24.252,37.467,12.50
2014-10-26 16:30,32.038,24.198,37.383,12.49
2014-10-26 17:00,32.038,24.202,37.365,12.47
2014-10-26 17:30,32.025,24.192,37.351,12.47
2014-10-26 18:00,32.004,24.176,37.329,12.47
2014-10-26 18:30,31.989,24.162,37.322,12.48
2014-10-26 19:00,31.999,24.170,37.333,12.48
2014-10-26 19:30,32.018,24.185,37.353,12.48
2014-10-26 20:00,32.037,24.200,37.373,12.48
2014-10-26 20:30,32.066,24.225,37.385,12.46
2014-10-26 21:00,32.083,24.239,37.403,12.46
2014-10-26 21:30,32.092,24.245,37.412,12.46
2014-10-26 22:00,32.089,24.241,37.418,12.47
2014-10-26 22:30,32.101,24.253,37.422,12.46
2014-10-26 23:00,32.098,24.249,37.428,12.47
2014-10-26 23:30,32.103,24.252,37.433,12.47
2014-10-27 00:00,32.108,24.258,37.429,12.46
2014-10-27 00:30,32.110,24.261,37.422,12.45
2014-10-27 01:00,32.111,24.260,37.432,12.46
2014-10-27 01:30,32.113,24.264,37.425,12.45
2014-10-27 02:00,32.119,24.272,37.414,12.43
2014-10-27 02:30,32.110,24.267,37.395,12.42
2014-10-27 03:00,32.114,24.272,37.391,12.41
2014-10-27 03:30,32.109,24.268,37.385,12.41
2014-10-27 04:00,32.123,24.283,37.382,12.39
2014-10-27 04:30,32.118,24.283,37.359,12.37
2014-10-27 05:00,32.050,24.249,37.199,12.27
2014-10-27 05:30,32.043,24.251,37.156,12.23
2014-10-27 06:00,32.044,24.250,37.166,12.24
2014-10-27 06:30,32.062,24.264,37.184,12.24
2014-10-27 07:00,32.071,24.261,37.238,12.29
2014-10-27 07:30,32.079,24.268,37.247,12.29
2014-10-27 08:00,32.097,24.276,37.292,12.32
2014-10-27 08:30,32.120,24.281,37.379,12.39
2014-10-27 09:00,32.113,24.270,37.399,12.42
2014-10-27 09:30,32.111,24.264,37.414,12.44
2014-10-27 10:00,32.115,24.268,37.419,12.44
2014-10-27 10:30,32.117,24.267,37.430,12.45
2014-10-27 11:00,32.108,24.256,37.438,12.47
2014-10-27 11:30,32.101,24.249,37.440,12.48
2014-10-27 12:00,32.109,24.255,37.448,12.48
2014-10-27 12:30,32.096,24.241,37.452,12.50
2014-10-27 13:00,32.079,24.226,37.443,12.51
2014-10-27 13:30,32.078,24.225,37.442,12.51
2014-10-27 14:00,32.072,24.219,37.445,12.52
2014-10-27 14:30,32.074,24.218,37.456,12.53
2014-10-27 15:00,32.073,24.216,37.464,12.54
2014-10-27 15:30,32.079,24.218,37.479,12.55
2014-10-27 16:00,32.085,24.222,37.495,12.56
2014-10-27 16:30,32.096,24.230,37.506,12.56
2014-10-27 17:00,32.102,24.234,37.512,12.56
2014-10-27 17:30,32.106,24.240,37.508,12.55
2014-10-27 18:00,32.108,24.239,37.519,12.56
2014-10-27 18:30,32.108,24.235,37.537,12.58
2014-10-27 19:00,32.103,24.229,37.540,12.59
2014-10-27 19:30,32.097,24.223,37.543,12.60
2014-10-27 20:00,32.101,24.228,37.538,12.59
2014-10-27 20:30,32.101,24.231,37.520,12.57
2014-10-27 21:00,32.088,24.222,37.507,12.57
2014-10-27 21:30,32.084,24.223,37.485,12.55
2014-10-27 22:00,32.082,24.220,37.482,12.55
2014-10-27 22:30,32.086,24.222,37.496,12.56
2014-10-27 23:00,32.084,24.223,37.485,12.55
2014-10-27 23:30,32.094,24.239,37.450,12.50
2014-10-28 00:00,32.103,24.247,37.460,12.50
2014-10-28 00:30,32.103,24.247,37.460,12.50
2014-10-28 01:00,32.104,24.246,37.470,12.51
2014-10-28 01:30,32.123,24.262,37.481,12.50
2014-10-28 02:00,32.137,24.275,37.486,12.49
2014-10-28 02:30,32.123,24.264,37.472,12.49
2014-10-28 03:00,32.114,24.259,37.453,12.48
2014-10-28 03:30,32.099,24.248,37.438,12.48
2014-10-28 04:00,31.940,24.183,36.995,12.17
2014-10-28 04:30,31.994,24.207,37.131,12.26
2014-10-28 05:00,31.993,24.207,37.130,12.26
2014-10-28 05:30,31.929,24.181,36.948,12.13
2014-10-28 06:00,31.946,24.191,36.983,12.15
2014-10-28 06:30,31.945,24.190,36.982,12.15
2014-10-28 07:00,31.989,24.224,37.028,12.15
2014-10-28 07:30,31.991,24.226,37.030,12.15
2014-10-28 08:00,32.129,24.272,37.460,12.47
2014-10-28 08:30,32.097,24.255,37.391,12.43
2014-10-28 09:00,32.095,24.254,37.389,12.43
2014-10-28 09:30,32.099,24.264,37.357,12.39
2014-10-28 10:00,32.116,24.278,37.375,12.39
2014-10-28 10:30,32.147,24.301,37.407,12.39
2014-10-28 11:00,32.138,24.297,37.389,12.38
2014-10-28 11:30,32.138,24.302,37.362,12.35
2014-10-28 12:00,32.173,24.328,37.408,12.36
2014-10-28 12:30,32.172,24.326,37.406,12.36
2014-10-28 13:00,32.170,24.321,37.422,12.38
2014-10-28 13:30,32.165,24.315,37.426,12.39
2014-10-28 14:00,32.161,24.309,37.440,12.41
2014-10-28 14:30,32.170,24.315,37.449,12.41
2014-10-28 15:00,32.168,24.312,37.456,12.42
2014-10-28 15:30,32.165,24.308,37.462,12.43
2014-10-28 16:00,32.161,24.299,37.485,12.46
2014-10-28 16:30,32.164,24.296,37.515,12.49
2014-10-28 17:00,32.165,24.299,37.507,12.48
2014-10-28 17:30,32.169,24.298,37.529,12.50
2014-10-28 18:00,32.164,24.288,37.551,12.53
2014-10-28 18:30,32.164,24.288,37.550,12.53
2014-10-28 19:00,32.164,24.286,37.559,12.54
2014-10-28 19:30,32.174,24.294,37.570,12.54
2014-10-28 20:00,32.139,24.259,37.569,12.58
2014-10-28 20:30,32.118,24.249,37.520,12.55
2014-10-28 21:00,32.115,24.252,37.490,12.52
2014-10-28 21:30,32.082,24.227,37.456,12.52
2014-10-28 22:00,32.076,24.225,37.431,12.50
2014-10-28 22:30,32.066,24.220,37.412,12.49
2014-10-28 23:00,32.068,24.212,37.459,12.54
2014-10-28 23:30,32.068,24.212,37.459,12.54
2014-10-29 00:00,32.075,24.210,37.502,12.58
2014-10-29 00:30,32.079,24.209,37.524,12.60
2014-10-29 01:00,32.072,24.202,37.526,12.61
2014-10-29 01:30,32.069,24.201,37.514,12.60
2014-10-29 02:00,32.067,24.206,37.485,12.57
2014-10-29 02:30,32.058,24.204,37.448,12.54
2014-10-29 03:00,32.058,24.204,37.448,12.54
2014-10-29 03:30,32.055,24.205,37.427,12.52
2014-10-29 04:00,32.058,24.211,37.412,12.50
2014-10-29 04:30,32.061,24.218,37.398,12.48
2014-10-29 05:00,32.076,24.229,37.413,12.48
2014-10-29 05:30,32.091,24.241,37.429,12.48
2014-10-29 06:00,32.109,24.247,37.484,12.52
2014-10-29 06:30,32.104,24.244,37.479,12.52
2014-10-29 07:00,32.111,24.253,37.468,12.50
2014-10-29 07:30,32.108,24.258,37.429,12.46
2014-10-29 08:00,32.111,24.270,37.387,12.41
2014-10-29 08:30,32.117,24.278,37.376,12.39
2014-10-29 09:00,32.099,24.255,37.402,12.44
2014-10-29 09:30,32.094,24.253,37.388,12.43
2014-10-29 10:00,32.084,24.243,37.386,12.44
2014-10-29 10:30,32.087,24.245,37.389,12.44
2014-10-29 11:00,32.090,24.249,37.383,12.43
2014-10-29 11:30,32.092,24.257,37.359,12.40
2014-10-29 12:00,32.089,24.252,37.364,12.41
2014-10-29 12:30,32.097,24.232,37.498,12.55
2014-10-29 13:00,32.098,24.227,37.526,12.58
2014-10-29 13:30,32.100,24.229,37.528,12.58
2014-10-29 14:00,32.099,24.222,37.554,12.61
2014-10-29 14:30,32.103,24.220,37.585,12.64
2014-10-29 15:00,32.101,24.211,37.619,12.68
2014-10-29 15:30,32.102,24.204,37.656,12.72
2014-10-29 16:00,32.015,24.138,37.555,12.71
2014-10-29 16:30,31.999,24.139,37.476,12.64
2014-10-29 17:00,32.033,24.185,37.422,12.54
2014-10-29 17:30,31.953,24.112,37.392,12.60
2014-10-29 18:00,31.967,24.093,37.540,12.75
2014-10-29 18:30,31.996,24.077,37.750,12.95
2014-10-29 19:00,31.861,23.929,37.803,13.17
2014-10-29 19:30,31.973,24.088,37.591,12.80
2014-10-29 20:00,32.019,24.168,37.434,12.57
2014-10-29 20:30,32.040,24.182,37.465,12.58
2014-10-29 21:00,32.099,24.236,37.491,12.54
2014-10-29 21:30,32.153,24.298,37.449,12.43
2014-10-29 22:00,32.202,24.341,37.483,12.41
2014-10-29 22:30,32.188,24.337,37.432,12.37
2014-10-29 23:00,32.127,24.284,37.395,12.40
2014-10-29 23:30,32.058,24.225,37.350,12.43
2014-10-30 00:00,32.037,24.200,37.373,12.48
2014-10-30 00:30,32.039,24.210,37.330,12.43
2014-10-30 01:00,32.041,24.210,37.341,12.44
2014-10-30 01:30,32.064,24.231,37.347,12.42
2014-10-30 02:00,32.060,24.230,37.334,12.41
2014-10-30 02:30,32.013,24.187,37.321,12.45
2014-10-30 03:00,32.019,24.189,37.336,12.46
2014-10-30 03:30,32.016,24.187,37.333,12.46
2014-10-30 04:00,32.011,24.187,37.310,12.44
2014-10-30 04:30,32.024,24.197,37.323,12.44
2014-10-30 05:00,32.046,24.217,37.328,12.42
2014-10-30 05:30,32.182,24.334,37.417,12.36
2014-10-30 06:00,32.402,24.528,37.539,12.24
2014-10-30 06:30,32.461,24.589,37.528,12.16
2014-10-30 07:00,32.480,24.605,37.538,12.15
2014-10-30 07:30,32.469,24.600,37.509,12.13
2014-10-30 08:00,32.491,24.629,37.478,12.07
2014-10-30 08:30,32.486,24.626,37.463,12.06
2014-10-30 09:00,32.481,24.626,37.440,12.04
2014-10-30 09:30,32.473,24.622,37.423,12.03
2014-10-30 10:00,32.446,24.592,37.440,12.08
2014-10-30 10:30,32.457,24.602,37.442,12.07
2014-10-30 11:00,32.448,24.593,37.442,12.08
2014-10-30 11:30,32.452,24.602,37.419,12.05
2014-10-30 12:00,32.424,24.573,37.426,12.09
2014-10-30 12:30,32.393,24.528,37.493,12.20
2014-10-30 13:00,32.408,24.549,37.464,12.15
2014-10-30 13:30,32.359,24.506,37.440,12.18
2014-10-30 14:00,32.310,24.462,37.416,12.21
2014-10-30 14:30,32.005,24.218,37.134,12.25
2014-10-30 15:00,32.001,24.207,37.165,12.29
2014-10-30 15:30,31.992,24.193,37.192,12.33
2014-10-30 16:00,31.990,24.184,37.225,12.37
2014-10-30 16:30,32.019,24.206,37.255,12.37
2014-10-30 17:00,31.981,24.158,37.305,12.47
2014-10-30 17:30,31.998,24.152,37.412,12.57
2014-10-30 18:00,32.214,24.342,37.531,12.45
2014-10-30 18:30,32.294,24.419,37.543,12.37
2014-10-30 19:00,32.316,24.450,37.503,12.30
2014-10-30 19:30,32.315,24.451,37.493,12.29
2014-10-30 20:00,32.306,24.441,37.492,12.30
2014-10-30 20:30,32.275,24.418,37.460,12.30
2014-10-30 21:00,32.265,24.408,37.459,12.31
2014-10-30 21:30,32.247,24.398,37.422,12.29
2014-10-30 22:00,32.194,24.343,37.429,12.36
2014-10-30 22:30,32.201,24.362,37.374,12.29
2014-10-30 23:00,32.185,24.352,37.348,12.28
2014-10-30 23:30,32.155,24.328,37.317,12.28
2014-10-31 00:00,32.088,24.278,37.238,12.27
2014-10-31 00:30,32.007,24.216,37.154,12.27
2014-10-31 01:00,31.946,24.178,37.046,12.22
2014-10-31 01:30,31.975,24.208,37.040,12.18
2014-10-31 02:00,31.938,24.185,36.975,12.15
2014-10-31 02:30,31.915,24.161,36.978,12.18
2014-10-31 03:00,31.937,24.179,37.001,12.18
2014-10-31 03:30,31.980,24.199,37.108,12.25
2014-10-31 04:00,31.956,24.184,37.065,12.23
2014-10-31 04:30,31.969,24.192,37.087,12.24
2014-10-31 05:00,31.958,24.182,37.085,12.25
2014-10-31 05:30,31.969,24.190,37.096,12.25
2014-10-31 06:00,31.979,24.194,37.124,12.27
2014-10-31 06:30,31.988,24.205,37.116,12.25
2014-10-31 07:00,31.990,24.218,37.065,12.19
2014-10-31 07:30,32.009,24.234,37.076,12.18
2014-10-31 08:00,32.018,24.243,37.076,12.17
2014-10-31 08:30,32.043,24.269,37.066,12.13
2014-10-31 09:00,32.084,24.296,37.136,12.16
2014-10-31 09:30,32.104,24.314,37.148,12.15
2014-10-31 10:00,32.100,24.312,37.135,12.14
2014-10-31 10:30,32.086,24.299,37.129,12.15
2014-10-31 11:00,32.076,24.296,37.101,12.13
2014-10-31 11:30,32.061,24.282,37.094,12.14
2014-10-31 12:00,32.056,24.278,37.089,12.14
2014-10-31 12:30,32.053,24.278,37.077,12.13
2014-10-31 13:00,32.043,24.266,37.084,12.15
2014-10-31 13:30,32.047,24.263,37.115,12.18
2014-10-31 14:00,32.043,24.259,37.120,12.19
2014-10-31 14:30,32.047,24.260,37.133,12.20
2014-10-31 15:00,32.056,24.259,37.178,12.24
2014-10-31 15:30,32.062,24.260,37.202,12.26
2014-10-31 16:00,32.053,24.250,37.211,12.28
2014-10-31 16:30,32.062,24.260,37.202,12.26
2014-10-31 17:00,32.064,24.258,37.222,12.28
2014-10-31 17:30,32.074,24.270,37.215,12.26
2014-10-31 18:00,32.076,24.271,37.217,12.26
2014-10-31 18:30,32.080,24.274,37.221,12.26
2014-10-31 19:00,32.078,24.275,37.210,12.25
2014-10-31 19:30,32.074,24.272,37.206,12.25
2014-10-31 20:00,32.073,24.271,37.205,12.25
2014-10-31 20:30,32.070,24.266,37.210,12.26
2014-10-31 21:00,32.061,24.257,37.210,12.27
2014-10-31 21:30,32.065,24.260,37.214,12.27
2014-10-31 22:00,32.063,24.257,37.221,12.28
2014-10-31 22:30,32.062,24.258,37.211,12.27
2014-10-31 23:00,32.062,24.260,37.202,12.26
2014-10-31 23:30,32.066,24.265,37.197,12.25
2014-11-01 00:00,32.074,24.273,37.197,12.24
2014-11-01 00:30,32.073,24.273,37.196,12.24
2014-11-01 01:00,32.075,24.276,37.189,12.23
2014-11-01 01:30,32.079,24.283,37.175,12.21
2014-11-01 02:00,32.083,24.287,37.170,12.20
2014-11-01 02:30,32.089,24.294,37.168,12.19
2014-11-01 03:00,32.093,24.297,37.172,12.19
2014-11-01 03:30,32.094,24.298,37.173,12.19
2014-11-01 04:00,32.093,24.299,37.163,12.18
2014-11-01 04:30,32.096,24.303,37.157,12.17
2014-11-01 05:00,32.098,24.307,37.150,12.16
2014-11-01 05:30,32.109,24.319,37.144,12.14
2014-11-01 06:00,32.110,24.320,37.145,12.14
2014-11-01 06:30,32.111,24.322,37.137,12.13
2014-11-01 07:00,32.116,24.328,37.133,12.12
2014-11-01 07:30,32.137,24.348,37.137,12.10
2014-11-01 08:00,32.146,24.359,37.129,12.08
2014-11-01 08:30,32.169,24.381,37.135,12.06
2014-11-01 09:00,32.166,24.378,37.132,12.06
2014-11-01 09:30,32.172,24.385,37.129,12.05
2014-11-01 10:00,32.181,24.392,37.138,12.05
2014-11-01 10:30,32.199,24.408,37.148,12.04
2014-11-01 11:00,32.195,24.406,37.135,12.03
2014-11-01 11:30,32.204,24.413,37.144,12.03
2014-11-01 12:00,32.199,24.408,37.148,12.04
2014-11-01 12:30,32.208,24.416,37.148,12.03
2014-11-01 13:00,32.199,24.409,37.139,12.03
2014-11-01 13:30,32.213,24.421,37.154,12.03
2014-11-01 14:00,32.210,24.420,37.142,12.02
2014-11-01 14:30,32.216,24.428,37.130,12.00
2014-11-01 15:00,32.211,24.423,37.134,12.01
2014-11-01 15:30,32.181,24.400,37.103,12.01
2014-11-01 16:00,32.171,24.391,37.092,12.01
2014-11-01 16:30,32.177,24.398,37.089,12.00
2014-11-01 17:00,32.176,24.399,37.079,11.99
2014-11-01 17:30,32.190,24.412,37.085,11.98
2014-11-01 18:00,32.188,24.412,37.074,11.97
2014-11-01 18:30,32.217,24.434,37.104,11.97
2014-11-01 19:00,32.233,24.449,37.112,11.96
2014-11-01 19:30,32.251,24.463,37.130,11.96
2014-11-01 20:00,32.254,24.467,37.124,11.95
2014-11-01 20:30,32.282,24.487,37.162,11.96
2014-11-01 21:00,32.282,24.487,37.162,11.96
2014-11-01 21:30,32.284,24.492,37.147,11.94
2014-11-01 22:00,32.300,24.508,37.145,11.92
2014-11-01 22:30,32.300,24.508,37.145,11.92
2014-11-01 23:00,32.208,24.442,37.023,11.89
2014-11-01 23:30,32.292,24.509,37.101,11.88
2014-11-02 00:00,32.299,24.518,37.090,11.86
2014-11-02 00:30,32.304,24.525,37.087,11.85
2014-11-02 01:00,32.323,24.539,37.106,11.85
2014-11-02 01:30,32.333,24.546,37.116,11.85
2014-11-02 02:00,32.317,24.534,37.100,11.85
2014-11-02 02:30,32.333,24.551,37.099,11.83
2014-11-02 03:00,32.345,24.560,37.111,11.83
2014-11-02 03:30,32.340,24.558,37.097,11.82
2014-11-02 04:00,32.339,24.557,37.096,11.82
2014-11-02 04:30,32.351,24.562,37.126,11.84
2014-11-02 05:00,32.351,24.570,37.090,11.80
2014-11-02 05:30,32.352,24.576,37.064,11.77
2014-11-02 06:00,32.351,24.573,37.072,11.78
2014-11-02 06:30,32.356,24.581,37.059,11.76
2014-11-02 07:00,32.383,24.602,37.087,11.76
2014-11-02 07:30,32.413,24.627,37.109,11.75
2014-11-02 08:00,32.480,24.674,37.205,11.78
2014-11-02 08:30,32.575,24.740,37.339,11.82
2014-11-02 09:00,32.651,24.786,37.480,11.89
2014-11-02 09:30,32.657,24.800,37.441,11.84
2014-11-02 10:00,32.675,24.812,37.469,11.85
2014-11-02 10:30,32.690,24.822,37.494,11.86
2014-11-02 11:00,32.709,24.844,37.477,11.82
2014-11-02 11:30,32.732,24.853,37.546,11.87
2014-11-02 12:00,32.744,24.858,37.576,11.89
2014-11-02 12:30,32.764,24.870,37.615,11.91
2014-11-02 13:00,32.783,24.891,37.608,11.88
2014-11-02 13:30,32.802,24.919,37.564,11.81
2014-11-02 14:00,32.807,24.927,37.541,11.78
2014-11-02 14:30,32.780,24.903,37.532,11.80
2014-11-02 15:00,32.786,24.910,37.529,11.79
2014-11-02 15:30,32.789,24.908,37.550,11.81
2014-11-02 16:00,32.781,24.906,37.524,11.79
2014-11-02 16:30,32.638,24.807,37.313,11.72
2014-11-02 17:00,32.588,24.772,37.244,11.70
2014-11-02 17:30,32.472,24.690,37.089,11.66
2014-11-02 18:00,32.442,24.666,37.058,11.66
2014-11-02 18:30,32.419,24.651,37.026,11.65
2014-11-02 19:00,32.398,24.637,36.986,11.63
2014-11-02 19:30,32.188,24.489,36.699,11.55
2014-11-02 20:00,32.148,24.458,36.658,11.55
2014-11-02 20:30,32.146,24.458,36.647,11.54
2014-11-02 21:00,32.183,24.485,36.694,11.55
2014-11-02 21:30,32.188,24.489,36.699,11.55
2014-11-02 22:00,32.287,24.558,36.836,11.59
2014-11-02 22:30,32.237,24.525,36.758,11.56
2014-11-02 23:00,32.212,24.515,36.688,11.51
2014-11-02 23:30,32.217,24.519,36.693,11.51
2014-11-03 00:00,32.227,24.526,36.703,11.51
2014-11-03 00:30,32.215,24.517,36.691,11.51
2014-11-03 01:00,32.206,24.512,36.673,11.50
2014-11-03 01:30,32.195,24.507,36.644,11.48
2014-11-03 02:00,32.203,24.510,36.670,11.50
2014-11-03 02:30,32.201,24.510,36.659,11.49
2014-11-03 03:00,32.214,24.518,36.681,11.50
2014-11-03 03:30,32.206,24.514,36.664,11.49
2014-11-03 04:00,32.201,24.512,36.650,11.48
2014-11-03 04:30,32.201,24.517,36.623,11.45
2014-11-03 05:00,32.219,24.533,36.633,11.44
2014-11-03 05:30,32.205,24.529,36.583,11.40
2014-11-03 06:00,32.194,24.521,36.572,11.40
2014-11-03 06:30,32.212,24.531,36.608,11.42
2014-11-03 07:00,32.215,24.537,36.593,11.40
2014-11-03 07:30,32.193,24.527,36.535,11.36
2014-11-03 08:00,32.197,24.533,36.521,11.34
2014-11-03 08:30,32.099,24.482,36.297,11.20
2014-11-03 09:00,32.130,24.496,36.382,11.26
2014-11-03 09:30,32.147,24.507,36.408,11.27
2014-11-03 10:00,32.078,24.468,36.267,11.19
2014-11-03 10:30,32.055,24.446,36.261,11.21
2014-11-03 11:00,32.081,24.458,36.332,11.26
2014-11-03 11:30,32.083,24.459,36.334,11.26
2014-11-03 12:00,32.098,24.469,36.358,11.27
2014-11-03 12:30,32.078,24.459,36.311,11.24
2014-11-03 13:00,32.078,24.461,36.302,11.23
2014-11-03 13:30,32.072,24.460,36.279,11.21
2014-11-03 14:00,32.082,24.464,36.307,11.23
2014-11-03 14:30,32.076,24.461,36.292,11.22
2014-11-03 15:00,32.080,24.469,36.269,11.19
2014-11-03 15:30,32.077,24.475,36.231,11.15
2014-11-03 16:00,32.089,24.482,36.252,11.16
2014-11-03 16:30,32.134,24.510,36.333,11.20
2014-11-03 17:00,32.199,24.546,36.470,11.28
2014-11-03 17:30,32.262,24.577,36.623,11.38
2014-11-03 18:00,32.289,24.595,36.669,11.40
2014-11-03 18:30,32.305,24.605,36.694,11.41
2014-11-03 19:00,32.316,24.613,36.705,11.41
2014-11-03 19:30,32.317,24.616,36.697,11.40
2014-11-03 20:00,32.324,24.620,36.713,11.41
2014-11-03 20:30,32.328,24.625,36.709,11.40
2014-11-03 21:00,32.328,24.627,36.700,11.39
2014-11-03 21:30,32.336,24.636,36.690,11.37
2014-11-03 22:00,32.332,24.632,36.695,11.38
2014-11-03 22:30,32.333,24.631,36.705,11.39
2014-11-03 23:00,32.344,24.641,36.707,11.38
2014-11-03 23:30,32.346,24.646,36.691,11.36
2014-11-04 00:00,32.347,24.647,36.692,11.36
2014-11-04 00:30,32.338,24.636,36.701,11.38
2014-11-04 01:00,32.293,24.624,36.539,11.25
2014-11-04 01:30,32.268,24.610,36.487,11.22
2014-11-04 02:00,32.249,24.603,36.432,11.18
2014-11-04 02:30,32.252,24.602,36.453,11.20
2014-11-04 03:00,32.256,24.603,36.466,11.21
2014-11-04 03:30,32.253,24.602,36.454,11.20
2014-11-04 04:00,32.276,24.620,36.477,11.20
2014-11-04 04:30,32.309,24.637,36.555,11.25
2014-11-04 05:00,32.310,24.641,36.538,11.23
2014-11-04 05:30,32.294,24.638,36.478,11.18
2014-11-04 06:00,32.313,24.646,36.533,11.22
2014-11-04 06:30,32.313,24.651,36.506,11.19
2014-11-04 07:00,32.338,24.663,36.567,11.23
2014-11-04 07:30,32.342,24.670,36.553,11.21
2014-11-04 08:00,32.340,24.668,36.551,11.21
2014-11-04 08:30,32.339,24.666,36.559,11.22
2014-11-04 09:00,32.338,24.666,36.549,11.21
2014-11-04 09:30,32.307,24.655,36.455,11.14
2014-11-04 10:00,32.299,24.649,36.447,11.14
2014-11-04 10:30,32.300,24.649,36.448,11.14
2014-11-04 11:00,32.292,24.642,36.449,11.15
2014-11-04 11:30,32.256,24.619,36.386,11.12
2014-11-04 12:00,32.244,24.613,36.356,11.10
2014-11-04 12:30,32.215,24.596,36.300,11.07
2014-11-04 13:00,32.222,24.597,36.324,11.09
2014-11-04 13:30,32.234,24.606,36.346,11.10
2014-11-04 14:00,32.238,24.599,36.394,11.15
2014-11-04 14:30,32.233,24.599,36.371,11.13
2014-11-04 15:00,32.235,24.599,36.382,11.14
2014-11-04 15:30,32.235,24.594,36.409,11.17
2014-11-04 16:00,32.245,24.595,36.455,11.21
2014-11-04 16:30,32.243,24.573,36.550,11.32
2014-11-04 17:00,32.269,24.575,36.666,11.42
2014-11-04 17:30,32.268,24.566,36.710,11.47
2014-11-04 18:00,32.286,24.571,36.773,11.52
2014-11-04 18:30,32.389,24.652,36.869,11.51
2014-11-04 19:00,32.406,24.673,36.851,11.47
2014-11-04 19:30,32.408,24.690,36.772,11.38
2014-11-04 20:00,32.398,24.690,36.726,11.34
2014-11-04 20:30,32.393,24.689,36.703,11.32
2014-11-04 21:00,32.390,24.687,36.700,11.32
2014-11-04 21:30,32.386,24.686,36.687,11.31
2014-11-04 22:00,32.385,24.685,36.686,11.31
2014-11-04 22:30,32.392,24.692,36.684,11.30
2014-11-04 23:00,32.400,24.697,36.702,11.31
2014-11-04 23:30,32.403,24.694,36.731,11.34
2014-11-05 00:00,32.382,24.681,36.692,11.32
2014-11-05 00:30,32.363,24.670,36.655,11.30
2014-11-05 01:00,32.358,24.670,36.632,11.28
2014-11-05 01:30,32.363,24.672,36.646,11.29
2014-11-05 02:00,32.370,24.674,36.671,11.31
2014-11-05 02:30,32.369,24.673,36.670,11.31
2014-11-05 03:00,32.366,24.669,36.676,11.32
2014-11-05 03:30,32.365,24.666,36.684,11.33
2014-11-05 04:00,32.359,24.665,36.660,11.31
2014-11-05 04:30,32.350,24.658,36.651,11.31
2014-11-05 05:00,32.361,24.668,36.653,11.30
2014-11-05 05:30,32.353,24.661,36.654,11.31
2014-11-05 06:00,32.352,24.670,36.599,11.25
2014-11-05 06:30,32.310,24.647,36.512,11.20
2014-11-05 07:00,32.305,24.641,36.516,11.21
2014-11-05 07:30,32.309,24.644,36.520,11.21
2014-11-05 08:00,32.315,24.649,36.526,11.21
2014-11-05 08:30,32.310,24.645,36.521,11.21
2014-11-05 09:00,32.310,24.645,36.521,11.21
2014-11-05 09:30,32.314,24.646,36.534,11.22
2014-11-05 10:00,32.319,24.650,36.539,11.22
2014-11-05 10:30,32.326,24.656,36.546,11.22
2014-11-05 11:00,32.329,24.656,36.558,11.23
2014-11-05 11:30,32.341,24.665,36.570,11.23
2014-11-05 12:00,32.345,24.667,36.583,11.24
2014-11-05 12:30,32.351,24.670,36.598,11.25
2014-11-05 13:00,32.355,24.671,36.611,11.26
2014-11-05 13:30,32.357,24.669,36.631,11.28
2014-11-05 14:00,32.365,24.668,36.675,11.32
2014-11-05 14:30,32.354,24.655,36.681,11.34
2014-11-05 15:00,32.338,24.640,36.683,11.36
2014-11-05 15:30,32.350,24.649,36.695,11.36
2014-11-05 16:00,32.328,24.629,36.691,11.38
2014-11-05 16:30,32.329,24.629,36.692,11.38
2014-11-05 17:00,32.325,24.623,36.706,11.40
2014-11-05 17:30,32.311,24.608,36.709,11.42
2014-11-05 18:00,32.309,24.603,36.725,11.44
2014-11-05 18:30,32.321,24.609,36.755,11.46
2014-11-05 19:00,32.311,24.599,36.754,11.47
2014-11-05 19:30,32.308,24.600,36.733,11.45
2014-11-05 20:00,32.303,24.598,36.719,11.44
2014-11-05 20:30,32.309,24.606,36.707,11.42
2014-11-05 21:00,32.326,24.643,36.608,11.29
2014-11-05 21:30,32.330,24.650,36.595,11.27
2014-11-05 22:00,32.327,24.633,36.663,11.35
2014-11-05 22:30,32.313,24.616,36.675,11.38
2014-11-05 23:00,32.313,24.618,36.666,11.37
2014-11-05 23:30,32.295,24.601,36.666,11.39
2014-11-06 00:00,32.283,24.592,36.654,11.39
2014-11-06 00:30,32.264,24.578,36.625,11.38
2014-11-06 01:00,32.261,24.582,36.596,11.35